Weather History for Houghton Lake, MI

Change the Weather History Date:

Friday, April 19, 2013

  Actual Average Record
Temperature  
Mean Temperature 42 °F 44 °F  
Max Temperature 57 °F 56 °F 81 °F (1948)
Min Temperature 27 °F 33 °F 2 °F (1918)
Degree Days  
Heating Degree Days 23 21  
Month to date heating degree days 561 473  
Since 1 July heating degree days 7090 7458  
Cooling Degree Days 0 0  
Month to date cooling degree days 0 0  
Year to date cooling degree days 0 0  
Moisture  
Dew Point 34 °F    
Average Humidity 73    
Maximum Humidity 93    
Minimum Humidity 53    
Precipitation  
Precipitation 0.09 in 0.08 in 1.30 in (1925)
Month to date precipitation 4.87 1.62  
Year to date precipitation 11.39 6.18  
Snow  
Snow T in 0.10 in 4.00 in (2011)
Month to date snowfall 2.5 3.2  
Since 1 July snowfall 59.6 66.0  
Snow Depth T in    
Sea Level Pressure  
Sea Level Pressure 29.37 in    
Wind  
Wind Speed 18 mph (SW)    
Max Wind Speed 30 mph    
Max Gust Speed 44 mph    
Visibility 8 miles    
Events Rain , Snow    
T = Trace of Precipitation, MM = Missing Value Source: NWS Daily Summary

Daily Weather History Graph

Daily Weather History Graph

Search for Another Location

Airport:

Trip Planner

Search our weather history database for the weather conditions in past years. The results will help you decide how hot, cold, wet, or windy it might be!

Date:

Astronomy

Apr. 19, 2013 Rise Set
Actual Time 6:47 AM EDT 8:28 PM EDT
Civil Twilight 6:17 AM EDT 8:59 PM EDT
Nautical Twilight 5:39 AM EDT 9:36 PM EDT
Astronomical Twilight 4:59 AM EDT 10:17 PM EDT
Moon 1:58 PM EDT (4/19) 3:17 AM EDT (4/19)
Length of Visible Light 14h 42m
Length of Day
13h 40m
First Quarter, 61% of the Moon is Illuminated
Apr 19
First Quarter
Apr 25
Full
May 2
Last Quarter
May 9
New
May 18
First Quarter

Hourly Weather History & Observations

Time (EDT) Temp. Windchill Dew Point Humidity Pressure Visibility Wind Dir Wind Speed Gust Speed Precip Events Conditions
12:53 AM 55.9 °F - 54.0 °F 93% 29.39 in 10.0 mi South 15.0 mph - N/A   Overcast
1:53 AM 57.0 °F - 54.0 °F 89% 29.36 in 10.0 mi South 18.4 mph 25.3 mph N/A   Mostly Cloudy
2:08 AM 57.2 °F - 55.4 °F 94% 29.33 in 9.0 mi South 17.3 mph 26.5 mph N/A   Mostly Cloudy
2:35 AM 55.4 °F - 53.6 °F 94% 29.34 in 3.0 mi SSW 20.7 mph 31.1 mph 0.03 in Rain Heavy Rain
2:42 AM 55.4 °F - 53.6 °F 94% 29.33 in 2.5 mi SSW 16.1 mph 31.1 mph 0.04 in Rain Light Rain
2:49 AM 53.6 °F - 53.6 °F 100% 29.33 in 3.0 mi SSW 12.7 mph 27.6 mph 0.05 in Rain Light Rain
2:53 AM 54.0 °F - 52.0 °F 93% 29.34 in 4.0 mi SW 15.0 mph 20.7 mph 0.05 in Rain Light Rain
3:22 AM 48.2 °F - 46.4 °F 93% 29.34 in 9.0 mi SW 17.3 mph 26.5 mph 0.00 in   Overcast
3:53 AM 46.9 °F - 43.0 °F 86% 29.34 in 10.0 mi SW 18.4 mph 28.8 mph 0.00 in   Mostly Cloudy
4:11 AM 44.6 °F 38.1 °F 42.8 °F 93% 29.32 in 10.0 mi SW 13.8 mph 24.2 mph N/A   Overcast
4:26 AM 44.6 °F 38.4 °F 42.8 °F 93% 29.33 in 10.0 mi SSW 12.7 mph - N/A   Overcast
4:49 AM 42.8 °F 35.8 °F 39.2 °F 87% 29.33 in 3.0 mi SW 13.8 mph 27.6 mph 0.02 in Rain Rain
4:53 AM 42.1 °F 34.5 °F 39.0 °F 89% 29.35 in 3.0 mi SW 15.0 mph 25.3 mph 0.02 in Rain Light Rain
5:02 AM 41.0 °F 33.1 °F 39.2 °F 93% 29.33 in 4.0 mi SSW 15.0 mph 27.6 mph 0.01 in Rain Light Rain
5:11 AM 41.0 °F 32.5 °F 37.4 °F 87% 29.32 in 6.0 mi SW 17.3 mph 23.0 mph 0.01 in Rain Light Rain
5:19 AM 39.2 °F 30.5 °F 37.4 °F 93% 29.33 in 6.0 mi SSW 16.1 mph 24.2 mph 0.01 in Rain Light Rain
5:53 AM 39.0 °F 31.0 °F 37.0 °F 93% 29.33 in 10.0 mi SW 13.8 mph 19.6 mph 0.02 in   Overcast
5:58 AM 39.2 °F 31.6 °F 35.6 °F 87% 29.32 in 10.0 mi SW 12.7 mph 20.7 mph N/A   Overcast
6:26 AM 39.2 °F 31.6 °F 35.6 °F 87% 29.31 in 10.0 mi SSW 12.7 mph 23.0 mph 0.00 in   Overcast
6:48 AM 37.4 °F 28.9 °F 35.6 °F 93% 29.32 in 10.0 mi SW 13.8 mph 19.6 mph 0.00 in   Overcast
6:53 AM 37.9 °F 29.6 °F 34.0 °F 86% 29.33 in 10.0 mi SW 13.8 mph - 0.00 in   Overcast
7:53 AM 37.0 °F 26.4 °F 33.1 °F 86% 29.32 in 10.0 mi SW 20.7 mph 33.4 mph N/A   Overcast
8:12 AM 37.4 °F 27.2 °F 32.0 °F 81% 29.30 in 10.0 mi WSW 19.6 mph 27.6 mph N/A   Overcast
8:38 AM 35.6 °F 25.5 °F 30.2 °F 81% 29.30 in 10.0 mi WSW 17.3 mph 25.3 mph N/A   Overcast
8:53 AM 36.0 °F 26.7 °F 30.9 °F 82% 29.31 in 10.0 mi SW 15.0 mph 23.0 mph N/A   Overcast
9:23 AM 33.8 °F 23.5 °F 30.2 °F 87% 29.30 in 1.8 mi WSW 16.1 mph 29.9 mph 0.00 in Snow Light Snow
9:28 AM 35.6 °F 25.2 °F 30.2 °F 81% 29.30 in 3.0 mi SW 18.4 mph 25.3 mph 0.00 in Snow Light Snow
9:53 AM 36.0 °F 25.6 °F 28.9 °F 76% 29.31 in 10.0 mi WSW 18.4 mph 27.6 mph 0.00 in   Overcast
10:53 AM 36.0 °F 25.0 °F 28.0 °F 73% 29.32 in 10.0 mi SW 20.7 mph 31.1 mph N/A   Overcast
11:12 AM 35.6 °F 24.2 °F 26.6 °F 70% 29.30 in 10.0 mi SW 21.9 mph 36.8 mph N/A   Overcast
11:30 AM 35.6 °F 23.7 °F 26.6 °F 70% 29.30 in 10.0 mi SW 24.2 mph 35.7 mph N/A   Overcast
11:53 AM 36.0 °F 24.7 °F 27.0 °F 70% 29.33 in 10.0 mi SW 21.9 mph 35.7 mph N/A   Overcast
12:53 PM 37.0 °F 26.4 °F 26.1 °F 65% 29.33 in 10.0 mi SW 20.7 mph 39.1 mph N/A   Overcast
1:53 PM 39.0 °F 29.0 °F 27.0 °F 62% 29.31 in 10.0 mi SW 20.7 mph 33.4 mph N/A   Overcast
2:53 PM 37.0 °F 27.0 °F 30.0 °F 76% 29.34 in 8.0 mi SW 18.4 mph 31.1 mph 0.00 in Snow Light Snow
3:03 PM 35.6 °F 23.7 °F 28.4 °F 75% 29.33 in 1.8 mi WSW 24.2 mph 35.7 mph 0.00 in Snow Light Snow
3:10 PM 35.6 °F 23.7 °F 30.2 °F 81% 29.33 in 1.5 mi WSW 24.2 mph 35.7 mph 0.00 in Snow Light Snow
3:13 PM 37.4 °F 26.9 °F 30.2 °F 75% 29.33 in 3.0 mi WSW 20.7 mph 35.7 mph 0.00 in Snow Light Snow
3:21 PM 37.4 °F 25.6 °F 30.2 °F 75% 29.33 in 9.0 mi WSW 26.5 mph 38.0 mph 0.00 in   Overcast
3:53 PM 36.0 °F 24.2 °F 28.9 °F 76% 29.37 in 4.0 mi WSW 24.2 mph 35.7 mph 0.00 in Snow Light Snow
4:53 PM 37.0 °F 26.2 °F 26.1 °F 65% 29.42 in 9.0 mi WSW 21.9 mph 34.5 mph 0.00 in   Overcast
5:53 PM 36.0 °F 25.0 °F 24.1 °F 62% 29.47 in 10.0 mi West 20.7 mph 31.1 mph 0.00 in   Overcast
6:53 PM 36.0 °F 24.7 °F 23.0 °F 59% 29.51 in 10.0 mi West 21.9 mph 31.1 mph 0.00 in   Overcast
7:53 PM 35.1 °F 23.8 °F 21.9 °F 59% 29.54 in 10.0 mi West 20.7 mph 28.8 mph 0.00 in   Overcast
8:53 PM 33.1 °F 21.9 °F 23.0 °F 66% 29.59 in 10.0 mi West 18.4 mph 27.6 mph 0.00 in   Overcast
9:53 PM 32.0 °F 20.8 °F 17.1 °F 54% 29.63 in 10.0 mi West 17.3 mph 31.1 mph N/A   Overcast
10:53 PM 30.9 °F 20.2 °F 16.0 °F 54% 29.66 in 10.0 mi WNW 15.0 mph 24.2 mph N/A   Overcast
11:53 PM 28.9 °F 19.8 °F 16.0 °F 58% 29.69 in 10.0 mi NW 10.4 mph - N/A   Overcast